QPF
0.00 0.00 0.00 0.00 0.00 0.00 0.00 0.00 0.00 0.00 0.00 0.00 0.00 0.00 0.00 0.00 0.00 0.00 0.00 0.00 0.00 0.00 0.00 0.00 0.00 0.00 0.00 0.00 0.00 0.00 0.00 0.00 0.00 0.00 0.00 0.00 0.00 0.00 0.00 0.00 0.00 0.00 0.00 0.00 0.00 0.00 0.00 0.00 0.00
0.00 0.00 0.00 0.00 0.00 0.00 0.00 0.00 0.00 0.00 0.00 0.00 0.00 0.00 0.00 0.00 0.00 0.00 0.00 0.01 0.00 0.00 0.00 0.00 0.00 0.00 0.00 0.00 0.00 0.00 0.00 0.00 0.00 0.00 0.00 0.00 0.00 0.00 0.00 0.00 0.00 0.00 0.00 0.00 0.00 0.00 0.00 0.00 0.00
0.00 0.00 0.00 0.00 0.00 0.00 0.00 0.01 0.00 0.00 0.00 0.00 0.00 0.00 0.00 0.00 0.00 0.00 0.01 0.06 0.02 0.00 0.00 0.00 0.00 0.00 0.00 0.00 0.00 0.00 0.00 0.00 0.00 0.00 0.00 0.00 0.00 0.00 0.00 0.00 0.00 0.00 0.00 0.00 0.00 0.00 0.00 0.00 0.00
0.00 0.00 0.00 0.00 0.00 0.00 0.00 0.00 0.00 0.00 0.00 0.00 0.00 0.00 0.00 0.00 0.01 0.00 0.01 0.04 0.03 0.01 0.01 0.01 0.01 0.02 0.00 0.00 0.00 0.00 0.00 0.00 0.00 0.00 0.00 0.00 0.00 0.00 0.00 0.00 0.00 0.00 0.00 0.00 0.00 0.00 0.00 0.00 0.00
0.00 0.00 0.00 0.00 0.00 0.00 0.01 0.02 0.05 0.02 0.00 0.00 0.00 0.00 0.00 0.00 0.04 0.04 0.06 0.05 0.11 0.16 0.09 0.15 0.17 0.08 0.00 0.00 0.00 0.00 0.00 0.00 0.00 0.00 0.00 0.00 0.00 0.00 0.00 0.00 0.00 0.00 0.00 0.00 0.00 0.00 0.00 0.00 0.00
0.00 0.00 0.00 0.00 0.00 0.00 0.00 0.05 0.10 0.09 0.01 0.03 0.01 0.00 0.00 0.01 0.07 0.22 0.25 0.29 0.29 0.66 0.64 0.36 0.29 0.19 0.02 0.00 0.00 0.00 0.00 0.00 0.00 0.00 0.00 0.00 0.00 0.00 0.00 0.00 0.00 0.00 0.00 0.00 0.00 0.00 0.00 0.00 0.00
0.00 0.00 0.00 0.00 0.00 0.00 0.00 0.02 0.04 0.08 0.02 0.01 0.01 0.00 0.00 0.01 0.02 0.07 0.34 0.73 0.82 0.51 0.74 0.54 0.18 0.07 0.02 0.00 0.00 0.00 0.00 0.00 0.00 0.00 0.00 0.00 0.00 0.00 0.00 0.00 0.00 0.00 0.00 0.00 0.00 0.00 0.00 0.00 0.00
0.00 0.00 0.00 0.00 0.00 0.00 0.00 0.02 0.00 0.03 0.03 0.01 0.05 0.01 0.00 0.01 0.00 0.03 0.11 0.45 1.69 1.83 0.74 0.30 0.24 0.10 0.01 0.00 0.00 0.00 0.00 0.00 0.00 0.00 0.00 0.00 0.00 0.00 0.00 0.00 0.00 0.00 0.00 0.00 0.00 0.00 0.00 0.00 0.00
0.00 0.00 0.00 0.00 0.00 0.00 0.00 0.00 0.00 0.00 0.00 0.01 0.02 0.01 0.03 0.04 0.00 0.01 0.02 0.10 0.55 0.73 0.41 0.27 0.18 0.02 0.00 0.00 0.00 0.00 0.00 0.00 0.00 0.00 0.00 0.00 0.00 0.00 0.00 0.00 0.00 0.00 0.00 0.00 0.00 0.00 0.00 0.00 0.00
0.00 0.00 0.00 0.00 0.00 0.00 0.00 0.00 0.00 0.00 0.00 0.02 0.01 0.01 0.02 0.02 0.01 0.00 0.01 0.06 0.23 0.37 0.25 0.18 0.05 0.00 0.00 0.00 0.00 0.00 0.00 0.00 0.00 0.00 0.00 0.00 0.00 0.00 0.00 0.00 0.00 0.00 0.00 0.00 0.00 0.00 0.00 0.00 0.00
0.00 0.00 0.00 0.00 0.00 0.00 0.00 0.00 0.00 0.00 0.00 0.00 0.00 0.01 0.00 0.01 0.00 0.00 0.03 0.08 0.19 0.16 0.13 0.08 0.01 0.00 0.00 0.00 0.00 0.00 0.00 0.00 0.00 0.00 0.00 0.00 0.00 0.00 0.00 0.00 0.00 0.00 0.00 0.00 0.00 0.00 0.00 0.00 0.00
0.00 0.00 0.00 0.00 0.00 0.00 0.00 0.00 0.00 0.00 0.01 0.00 0.00 0.02 0.01 0.01 0.03 0.00 0.00 0.01 0.01 0.04 0.04 0.04 0.00 0.00 0.00 0.00 0.00 0.00 0.00 0.00 0.00 0.00 0.00 0.00 0.00 0.00 0.00 0.00 0.00 0.00 0.00 0.00 0.00 0.00 0.00 0.00 0.00
0.00 0.00 0.00 0.00 0.00 0.00 0.00 0.00 0.00 0.02 0.05 0.01 0.01 0.08 0.05 0.04 0.05 0.00 0.00 0.00 0.00 0.00 0.01 0.01 0.00 0.00 0.00 0.00 0.00 0.00 0.00 0.00 0.00 0.00 0.00 0.00 0.00 0.00 0.00 0.00 0.00 0.00 0.00 0.00 0.00 0.00 0.00 0.00 0.00
0.00 0.00 0.00 0.00 0.00 0.00 0.00 0.00 0.00 0.02 0.04 0.01 0.01 0.01 0.03 0.04 0.01 0.02 0.00 0.00 0.00 0.00 0.00 0.00 0.00 0.00 0.00 0.00 0.00 0.00 0.00 0.00 0.00 0.00 0.00 0.00 0.01 0.00 0.00 0.00 0.00 0.00 0.00 0.00 0.00 0.00 0.00 0.00 0.00
0.00 0.00 0.01 0.01 0.01 0.00 0.00 0.00 0.00 0.00 0.03 0.00 0.00 0.02 0.04 0.02 0.00 0.02 0.01 0.00 0.00 0.00 0.00 0.00 0.00 0.00 0.00 0.00 0.00 0.00 0.00 0.00 0.00 0.00 0.00 0.00 0.00 0.00 0.00 0.00 0.00 0.00 0.00 0.00 0.00 0.00 0.00 0.00 0.00
0.00 0.00 0.01 0.01 0.00 0.00 0.00 0.00 0.00 0.00 0.01 0.00 0.00 0.02 0.02 0.04 0.01 0.00 0.00 0.00 0.00 0.00 0.00 0.00 0.00 0.00 0.00 0.00 0.00 0.00 0.00 0.00 0.00 0.00 0.00 0.00 0.00 0.00 0.00 0.00 0.00 0.00 0.00 0.00 0.00 0.00 0.00 0.00 0.00
0.00 0.00 0.00 0.00 0.00 0.00 0.00 0.00 0.00 0.01 0.01 0.01 0.00 0.01 0.01 0.01 0.01 0.00 0.00 0.00 0.00 0.00 0.00 0.00 0.00 0.00 0.00 0.00 0.00 0.00 0.00 0.00 0.00 0.00 0.00 0.00 0.00 0.00 0.00 0.00 0.00 0.00 0.00 0.00 0.00 0.00 0.00 0.00 0.00
0.00 0.00 0.00 0.00 0.00 0.00 0.00 0.00 0.00 0.00 0.00 0.00 0.00 0.00 0.00 0.00 0.00 0.00 0.00 0.00 0.00 0.00 0.00 0.00 0.00 0.00 0.00 0.00 0.00 0.00 0.00 0.00 0.00 0.00 0.00 0.00 0.00 0.00 0.00 0.00 0.00 0.00 0.00 0.00 0.00 0.00 0.00 0.00 0.00
0.00 0.00 0.00 0.00 0.00 0.00 0.00 0.00 0.00 0.00 0.00 0.00 0.00 0.00 0.00 0.00 0.00 0.00 0.00 0.00 0.00 0.00 0.00 0.00 0.00 0.00 0.00 0.00 0.00 0.00 0.00 0.00 0.00 0.00 0.00 0.00 0.00 0.00 0.00 0.00 0.00 0.00 0.00 0.00 0.00 0.00 0.00 0.00 0.00
0.00 0.00 0.00 0.00 0.00 0.00 0.00 0.00 0.00 0.00 0.00 0.00 0.00 0.00 0.00 0.00 0.00 0.00 0.00 0.00 0.00 0.00 0.00 0.00 0.00 0.01 0.00 0.00 0.00 0.00 0.00 0.00 0.00 0.00 0.00 0.00 0.00 0.00 0.00 0.00 0.00 0.00 0.00 0.00 0.00 0.00 0.00 0.00 0.00
0.00 0.00 0.00 0.00 0.00 0.00 0.00 0.00 0.00 0.00 0.00 0.00 0.00 0.00 0.00 0.00 0.00 0.00 0.00 0.00 0.00 0.00 0.00 0.01 0.01 0.04 0.03 0.00 0.00 0.00 0.00 0.00 0.00 0.00 0.00 0.00 0.00 0.00 0.00 0.00 0.00 0.00 0.00 0.00 0.00 0.00 0.00 0.00 0.00
0.00 0.00 0.00 0.00 0.00 0.00 0.00 0.00 0.00 0.00 0.00 0.00 0.00 0.00 0.00 0.00 0.01 0.01 0.00 0.00 0.00 0.00 0.00 0.02 0.04 0.09 0.03 0.00 0.00 0.00 0.00 0.00 0.00 0.00 0.00 0.00 0.00 0.00 0.00 0.00 0.00 0.00 0.00 0.00 0.00 0.00 0.00 0.00 0.00
0.00 0.00 0.00 0.00 0.00 0.00 0.00 0.00 0.00 0.00 0.00 0.00 0.00 0.00 0.00 0.00 0.00 0.00 0.01 0.00 0.00 0.00 0.02 0.04 0.02 0.02 0.01 0.00 0.00 0.00 0.00 0.00 0.00 0.00 0.00 0.00 0.00 0.00 0.00 0.00 0.00 0.00 0.00 0.00 0.00 0.00 0.00 0.00 0.00
0.00 0.00 0.00 0.00 0.00 0.00 0.00 0.00 0.00 0.00 0.00 0.00 0.00 0.00 0.00 0.00 0.00 0.01 0.00 0.00 0.00 0.02 0.05 0.04 0.02 0.01 0.01 0.00 0.00 0.00 0.00 0.00 0.00 0.00 0.00 0.00 0.00 0.00 0.00 0.00 0.00 0.00 0.00 0.00 0.00 0.00 0.00 0.00 0.00
0.00 0.00 0.00 0.00 0.00 0.00 0.00 0.00 0.00 0.00 0.00 0.00 0.00 0.00 0.00 0.00 0.00 0.00 0.00 0.00 0.00 0.01 0.04 0.03 0.00 0.00 0.00 0.00 0.00 0.00 0.00 0.00 0.00 0.00 0.00 0.00 0.00 0.00 0.00 0.00 0.00 0.00 0.00 0.00 0.00 0.00 0.00 0.00 0.00
0.00 0.00 0.00 0.00 0.00 0.00 0.00 0.00 0.00 0.00 0.00 0.00 0.00 0.00 0.00 0.00 0.00 0.00 0.00 0.02 0.01 0.02 0.05 0.01 0.01 0.00 0.00 0.00 0.00 0.00 0.00 0.00 0.00 0.00 0.00 0.00 0.00 0.00 0.00 0.00 0.00 0.00 0.00 0.00 0.00 0.00 0.00 0.00 0.00
0.00 0.00 0.00 0.00 0.00 0.00 0.00 0.00 0.00 0.00 0.00 0.00 0.00 0.00 0.00 0.00 0.00 0.00 0.00 0.02 0.02 0.00 0.01 0.01 0.01 0.00 0.02 0.02 0.01 0.00 0.00 0.00 0.00 0.00 0.00 0.00 0.00 0.00 0.00 0.00 0.00 0.00 0.00 0.00 0.00 0.00 0.00 0.00 0.00
0.00 0.00 0.00 0.00 0.00 0.00 0.00 0.00 0.00 0.00 0.00 0.00 0.00 0.00 0.00 0.00 0.00 0.00 0.00 0.00 0.00 0.00 0.00 0.00 0.00 0.02 0.02 0.01 0.01 0.01 0.01 0.00 0.01 0.01 0.00 0.00 0.00 0.00 0.00 0.00 0.00 0.00 0.00 0.00 0.00 0.00 0.00 0.00 0.00
0.00 0.00 0.00 0.00 0.00 0.00 0.00 0.00 0.00 0.00 0.00 0.00 0.00 0.00 0.00 0.00 0.00 0.00 0.00 0.00 0.00 0.00 0.00 0.00 0.00 0.01 0.00 0.00 0.00 0.01 0.01 0.00 0.00 0.00 0.00 0.00 0.00 0.00 0.00 0.00 0.00 0.00 0.00 0.00 0.00 0.00 0.00 0.00 0.00
0.00 0.00 0.01 0.00 0.00 0.00 0.00 0.00 0.00 0.00 0.00 0.00 0.00 0.00 0.00 0.00 0.00 0.00 0.00 0.00 0.00 0.00 0.00 0.00 0.00 0.00 0.00 0.00 0.00 0.00 0.00 0.00 0.00 0.00 0.00 0.00 0.00 0.00 0.00 0.00 0.00 0.00 0.00 0.00 0.00 0.00 0.00 0.00 0.00
MSLP
1013.33 1013.60 1013.77 1014.14 1015.60 1015.90 1015.20 1013.39 1011.82 1011.37 1010.93 1010.73 1010.39 1010.66 1011.24 1012.14 1012.69 1013.51 1013.06 1013.67 1014.06 1014.70 1015.07 1015.27 1015.63 1016.20 1016.68 1017.14 1017.64 1017.87 1018.27 1018.44 1018.59 1018.81 1019.17 1019.27 1019.58 1020.35 1020.29 1020.50 1020.69 1020.76 1020.40 1020.40 1020.49 1020.58 1020.45 1020.61 1020.47
1013.07 1013.47 1014.02 1014.68 1015.49 1015.81 1014.34 1012.53 1011.54 1011.02 1010.79 1010.98 1011.13 1011.28 1011.78 1012.49 1012.82 1013.40 1013.70 1014.11 1014.24 1014.75 1015.34 1015.76 1015.84 1016.15 1016.84 1017.46 1017.76 1018.24 1018.41 1018.72 1018.93 1019.34 1019.26 1019.61 1019.91 1020.49 1020.50 1020.79 1020.91 1020.95 1020.72 1020.59 1020.84 1020.67 1020.91 1020.88 1020.88
1013.06 1013.13 1014.48 1015.01 1015.21 1014.86 1013.73 1011.93 1011.32 1010.93 1010.53 1010.72 1011.15 1011.51 1012.28 1012.97 1013.01 1013.49 1013.96 1014.36 1014.53 1015.21 1015.71 1016.15 1016.11 1016.36 1017.16 1017.71 1018.08 1018.49 1018.67 1018.63 1019.16 1019.61 1019.62 1019.92 1020.35 1020.67 1020.73 1021.11 1021.13 1021.20 1021.24 1020.94 1021.09 1020.93 1020.99 1021.06 1021.41
1013.07 1013.85 1014.71 1014.68 1014.28 1013.75 1012.71 1011.70 1011.49 1011.01 1010.77 1010.81 1011.65 1012.70 1013.24 1013.79 1013.57 1013.59 1014.38 1014.51 1015.06 1015.60 1015.94 1016.49 1016.88 1016.40 1017.06 1018.10 1018.50 1018.82 1018.95 1018.85 1019.19 1019.63 1019.72 1020.33 1020.65 1020.83 1021.22 1021.30 1021.52 1021.57 1021.53 1021.35 1021.43 1021.64 1021.58 1021.19 1021.36
1013.22 1014.28 1014.74 1014.37 1014.14 1013.20 1012.43 1011.78 1011.68 1011.64 1011.25 1011.51 1011.93 1013.48 1014.12 1014.42 1014.17 1014.30 1014.86 1015.19 1015.31 1015.85 1016.21 1016.39 1017.58 1017.26 1017.04 1018.34 1018.81 1019.16 1019.37 1019.44 1019.24 1019.53 1019.86 1020.43 1020.66 1020.98 1021.18 1021.43 1021.63 1021.89 1021.66 1021.53 1021.64 1021.83 1021.88 1021.95 1021.97
1013.83 1014.45 1014.83 1013.91 1013.71 1013.25 1012.71 1012.43 1012.36 1012.22 1012.13 1012.31 1012.74 1013.55 1015.33 1015.42 1015.24 1015.50 1015.70 1015.84 1015.56 1016.14 1016.70 1017.22 1017.22 1017.67 1017.53 1018.32 1018.97 1019.32 1019.70 1019.54 1019.30 1019.67 1020.11 1020.41 1020.53 1020.90 1021.14 1021.52 1021.87 1022.08 1022.17 1022.05 1022.30 1022.25 1022.26 1022.37 1022.57
1013.87 1014.26 1014.20 1013.61 1013.27 1013.14 1012.53 1012.39 1012.46 1012.39 1012.07 1012.71 1012.97 1014.59 1016.10 1016.00 1015.95 1016.10 1016.41 1016.41 1015.91 1017.23 1017.78 1017.68 1018.21 1017.97 1018.49 1018.45 1019.23 1019.47 1019.56 1019.71 1019.76 1020.03 1020.17 1020.51 1020.74 1020.99 1021.35 1021.62 1021.80 1022.06 1022.34 1022.59 1022.50 1022.58 1022.56 1023.06 1023.05
1013.27 1013.74 1013.58 1013.12 1012.91 1012.83 1012.47 1012.60 1011.53 1010.97 1011.83 1011.84 1013.29 1014.74 1016.40 1016.62 1016.47 1016.52 1017.09 1017.98 1018.16 1018.31 1018.34 1018.95 1019.06 1018.78 1019.41 1019.73 1019.68 1019.70 1019.75 1020.09 1020.14 1020.20 1020.33 1020.60 1020.86 1021.06 1021.46 1021.84 1022.18 1022.36 1022.44 1022.71 1022.88 1022.83 1023.02 1023.23 1023.33
1012.44 1013.09 1012.59 1012.68 1012.35 1012.60 1012.17 1012.14 1011.84 1011.54 1011.93 1013.22 1013.49 1014.59 1015.86 1016.60 1016.81 1017.18 1017.39 1018.06 1018.02 1019.29 1019.48 1019.30 1019.62 1020.03 1020.38 1020.06 1019.88 1020.03 1020.15 1020.08 1020.19 1020.33 1020.62 1021.00 1021.23 1021.64 1021.84 1021.94 1022.23 1022.54 1022.86 1022.91 1022.89 1023.20 1023.46 1023.39 1023.57
1012.26 1012.45 1011.83 1011.67 1011.72 1012.02 1012.14 1012.76 1012.30 1012.47 1012.80 1014.48 1015.08 1016.03 1016.78 1016.93 1016.86 1017.43 1017.69 1018.20 1018.86 1019.19 1019.45 1019.09 1020.60 1020.11 1020.19 1020.00 1020.25 1020.27 1020.40 1020.40 1020.50 1020.88 1020.99 1021.15 1021.40 1021.71 1022.03 1022.23 1022.60 1022.90 1023.04 1023.16 1023.33 1023.40 1023.58 1023.71 1024.05
1011.77 1011.33 1010.97 1011.01 1011.05 1011.67 1012.23 1012.58 1012.65 1012.75 1013.12 1013.74 1014.68 1015.87 1016.97 1017.12 1017.13 1017.39 1017.91 1018.13 1018.70 1019.27 1019.60 1019.47 1019.95 1020.15 1020.16 1020.26 1020.50 1020.38 1020.50 1020.79 1020.88 1021.20 1021.23 1021.46 1021.95 1022.39 1022.56 1022.80 1023.18 1023.52 1023.63 1023.70 1023.83 1023.86 1023.99 1024.28 1024.40
1011.16 1010.23 1010.46 1010.52 1011.40 1012.01 1012.41 1012.16 1012.69 1012.69 1012.54 1012.77 1013.83 1015.01 1016.21 1016.56 1016.90 1017.10 1017.09 1017.81 1018.42 1018.80 1018.95 1019.46 1019.62 1020.05 1019.97 1020.32 1020.60 1020.52 1020.70 1020.90 1021.05 1021.33 1021.43 1021.78 1022.19 1022.61 1023.03 1022.73 1023.26 1023.76 1023.99 1024.19 1024.16 1024.29 1024.42 1024.31 1024.77
1010.52 1009.99 1009.90 1010.47 1011.38 1011.90 1011.56 1012.19 1012.63 1012.87 1012.49 1012.92 1014.31 1014.68 1015.88 1016.48 1017.42 1017.63 1017.50 1017.99 1018.59 1018.58 1019.48 1019.34 1019.34 1019.65 1019.89 1020.31 1020.63 1020.53 1020.55 1020.98 1021.50 1021.46 1021.52 1021.56 1021.81 1022.59 1022.97 1023.14 1023.52 1023.99 1024.31 1024.32 1024.39 1024.59 1024.46 1024.70 1024.78
1009.50 1009.49 1010.21 1010.21 1011.12 1011.38 1011.42 1011.95 1011.97 1013.08 1012.81 1013.45 1014.26 1014.55 1015.71 1016.22 1016.76 1017.36 1018.00 1018.16 1018.35 1018.94 1019.04 1019.09 1019.25 1019.49 1019.82 1019.82 1020.24 1020.46 1020.83 1021.38 1021.45 1021.61 1021.53 1021.61 1021.84 1022.54 1023.03 1023.66 1023.80 1024.10 1024.30 1024.27 1024.45 1024.49 1025.07 1025.35 1025.31
1009.62 1010.26 1010.63 1011.06 1011.63 1011.34 1011.04 1011.64 1012.10 1012.72 1012.98 1013.41 1013.91 1014.24 1015.18 1015.96 1016.44 1016.59 1017.33 1017.77 1017.82 1017.99 1018.36 1018.66 1018.92 1019.29 1019.67 1019.79 1020.06 1020.80 1021.28 1021.26 1021.51 1021.67 1021.64 1021.77 1022.31 1022.64 1023.02 1023.77 1024.17 1024.16 1024.10 1024.24 1024.43 1024.86 1025.30 1025.81 1025.66
1009.97 1010.54 1011.83 1011.62 1011.22 1010.61 1011.02 1011.52 1011.45 1012.10 1012.87 1013.44 1013.56 1014.11 1014.84 1015.47 1015.82 1016.37 1016.68 1017.06 1017.38 1017.61 1017.95 1018.42 1018.84 1019.20 1019.55 1020.02 1020.65 1021.18 1021.21 1021.09 1021.62 1021.90 1021.93 1021.89 1022.36 1022.40 1023.14 1023.47 1023.92 1024.13 1024.18 1024.39 1024.92 1025.22 1025.79 1026.15 1026.60
1010.72 1011.08 1011.14 1011.43 1010.53 1010.30 1010.70 1011.31 1011.22 1011.52 1012.55 1013.32 1013.60 1014.10 1014.50 1014.97 1015.55 1015.86 1016.36 1016.57 1016.83 1017.12 1017.45 1018.16 1018.70 1019.42 1019.84 1020.41 1020.71 1021.12 1021.15 1021.34 1022.02 1022.25 1022.37 1022.22 1022.39 1022.76 1023.10 1023.49 1024.05 1024.03 1024.45 1024.79 1024.98 1025.72 1025.89 1026.40 1026.52
1011.24 1011.01 1010.78 1010.91 1010.85 1010.77 1010.60 1010.96 1010.90 1011.58 1012.17 1012.90 1013.26 1013.72 1013.98 1014.22 1014.55 1015.09 1015.71 1016.32 1016.56 1016.93 1017.29 1018.04 1018.72 1019.43 1020.01 1020.40 1020.78 1021.11 1021.28 1021.91 1022.08 1022.39 1022.43 1022.31 1022.71 1022.87 1023.14 1023.61 1024.11 1024.44 1024.83 1025.33 1025.40 1025.80 1025.98 1026.35 1026.49
1011.10 1010.74 1011.06 1010.78 1010.37 1010.54 1010.57 1010.71 1010.89 1011.30 1012.18 1012.76 1012.90 1013.22 1013.36 1013.60 1013.93 1014.61 1015.29 1015.98 1016.55 1016.89 1017.42 1017.95 1018.75 1019.45 1019.77 1020.35 1020.84 1021.35 1021.73 1021.90 1022.11 1022.28 1022.16 1022.68 1022.68 1022.70 1023.26 1024.07 1024.59 1024.80 1025.06 1025.26 1025.22 1025.72 1026.16 1026.53 1026.60
1010.98 1011.27 1010.90 1010.30 1009.69 1010.31 1010.70 1010.91 1011.07 1011.31 1011.41 1012.00 1012.27 1012.75 1013.03 1013.47 1014.07 1014.67 1015.34 1015.96 1016.47 1016.80 1017.53 1017.97 1018.57 1019.08 1019.36 1019.69 1020.24 1020.65 1021.22 1021.71 1021.88 1022.08 1022.34 1022.38 1022.49 1022.95 1023.75 1024.19 1024.45 1024.66 1024.96 1025.10 1025.37 1025.78 1026.36 1026.60 1026.62
1010.92 1011.05 1010.83 1010.52 1010.47 1010.38 1010.71 1011.13 1011.01 1010.91 1010.88 1011.58 1011.67 1011.65 1012.09 1012.34 1013.31 1014.19 1014.98 1015.57 1016.05 1016.82 1017.28 1017.59 1018.15 1018.71 1019.10 1019.62 1020.06 1020.40 1020.89 1021.45 1021.99 1022.31 1022.59 1022.74 1022.83 1023.25 1023.45 1023.85 1024.17 1024.34 1024.54 1025.04 1025.42 1025.72 1026.07 1026.54 1026.60
1011.09 1010.66 1010.55 1010.43 1010.69 1010.95 1010.89 1011.47 1010.92 1010.38 1010.54 1011.00 1011.56 1011.84 1011.76 1012.17 1012.91 1013.49 1014.37 1015.09 1015.50 1016.28 1016.84 1017.27 1017.89 1018.50 1018.99 1019.38 1019.57 1020.01 1020.69 1021.50 1021.72 1022.16 1022.53 1022.75 1022.70 1022.88 1022.96 1023.26 1023.67 1024.19 1024.67 1025.23 1025.41 1025.55 1025.92 1026.29 1026.61
1010.54 1010.29 1010.64 1010.76 1011.28 1011.41 1011.24 1011.36 1010.53 1010.24 1010.26 1010.18 1010.55 1010.88 1011.14 1011.53 1012.02 1012.83 1013.32 1013.72 1014.59 1015.56 1016.17 1016.96 1017.62 1018.20 1018.46 1018.92 1019.29 1019.95 1020.61 1020.95 1021.35 1022.02 1022.44 1022.60 1022.60 1022.68 1022.94 1023.45 1024.14 1024.66 1025.04 1025.19 1025.36 1025.45 1025.72 1026.00 1026.34
1010.36 1010.59 1011.19 1011.83 1012.28 1012.43 1012.02 1011.80 1010.69 1010.11 1009.08 1009.00 1009.13 1010.21 1010.89 1011.53 1012.05 1012.45 1013.30 1013.94 1014.77 1015.62 1016.09 1016.47 1017.18 1017.60 1018.32 1018.76 1018.95 1019.57 1020.02 1020.70 1021.36 1021.96 1022.38 1022.57 1022.99 1023.48 1023.69 1024.00 1024.37 1024.89 1024.84 1025.36 1025.64 1025.61 1025.50 1025.55 1025.95
1010.21 1011.26 1012.50 1013.29 1013.50 1013.19 1012.24 1011.69 1010.16 1009.12 1008.70 1008.52 1009.11 1009.72 1010.39 1011.33 1012.10 1012.62 1013.37 1014.09 1014.85 1015.19 1015.87 1016.33 1016.84 1017.36 1017.70 1018.25 1018.61 1019.15 1019.56 1020.04 1020.64 1021.37 1022.08 1022.70 1023.49 1024.05 1024.58 1024.66 1024.77 1024.79 1024.63 1025.04 1025.28 1025.37 1025.66 1025.53 1025.83
1010.89 1011.50 1012.78 1013.94 1014.65 1013.95 1012.69 1011.41 1009.72 1008.34 1007.67 1008.02 1008.56 1009.34 1010.22 1011.02 1011.76 1012.46 1013.08 1013.78 1014.21 1014.75 1015.52 1016.08 1016.54 1016.94 1017.35 1017.83 1018.31 1018.87 1019.54 1020.12 1020.76 1021.25 1021.96 1022.80 1023.52 1024.03 1023.95 1024.51 1024.89 1025.50 1025.61 1024.93 1025.07 1025.28 1025.61 1025.86 1025.78
1010.46 1011.34 1011.60 1013.55 1015.03 1014.75 1013.19 1011.09 1009.41 1008.60 1008.21 1008.71 1009.33 1009.64 1010.45 1010.98 1011.73 1012.28 1013.00 1013.46 1014.14 1014.68 1015.20 1015.67 1016.07 1016.69 1017.24 1017.92 1018.48 1019.09 1019.76 1020.30 1020.96 1021.76 1022.42 1023.00 1023.64 1023.86 1024.72 1024.78 1024.44 1025.10 1025.11 1024.93 1024.75 1025.27 1025.50 1025.53 1025.71
1010.22 1010.73 1011.80 1013.38 1014.86 1015.10 1013.66 1011.91 1010.35 1009.47 1009.10 1009.30 1009.80 1010.26 1010.77 1011.39 1012.00 1012.40 1012.90 1013.36 1013.81 1014.12 1014.76 1015.26 1015.48 1016.29 1017.20 1018.28 1018.69 1019.25 1020.02 1020.63 1021.31 1022.01 1022.60 1023.07 1023.55 1023.31 1024.01 1024.19 1024.76 1024.68 1024.60 1024.77 1025.05 1025.26 1025.23 1025.30 1025.59
1010.26 1010.56 1011.54 1012.93 1014.21 1014.87 1014.31 1012.48 1010.22 1009.63 1009.28 1009.47 1009.77 1010.02 1010.49 1011.14 1011.55 1012.00 1012.45 1012.87 1013.32 1013.79 1014.39 1014.92 1015.32 1016.24 1017.04 1017.79 1018.56 1019.33 1020.15 1020.70 1021.16 1021.73 1022.26 1022.66 1022.84 1023.27 1023.63 1024.06 1024.12 1024.41 1024.45 1024.59 1024.90 1024.96 1025.04 1025.25 1025.44
1009.97 1010.65 1011.31 1013.11 1014.27 1014.63 1014.08 1012.18 1009.97 1009.39 1009.22 1009.38 1009.72 1010.09 1010.29 1010.42 1010.81 1011.21 1011.67 1012.26 1012.97 1013.45 1013.97 1014.36 1014.79 1015.54 1016.46 1017.06 1018.02 1018.89 1019.43 1019.93 1020.62 1021.25 1021.84 1022.15 1022.59 1022.74 1023.09 1023.59 1023.96 1024.09 1024.32 1024.46 1024.71 1024.93 1025.08 1025.18 1025.34
Thickness
5688 5688 5690 5684 5655 5647 5650 5673 5708 5705 5712 5727 5734 5725 5717 5713 5713 5705 5725 5721 5718 5714 5710 5709 5705 5701 5698 5693 5689 5688 5684 5682 5681 5680 5677 5677 5675 5668 5669 5667 5665 5664 5667 5666 5664 5661 5661 5659 5661
5686 5686 5680 5665 5640 5632 5648 5685 5698 5707 5716 5719 5720 5722 5714 5707 5717 5713 5713 5712 5708 5704 5701 5697 5697 5696 5691 5684 5683 5679 5678 5676 5675 5671 5674 5671 5670 5665 5666 5664 5663 5662 5664 5664 5661 5660 5656 5655 5655
5682 5685 5664 5649 5631 5640 5651 5690 5697 5709 5717 5715 5710 5717 5711 5705 5716 5712 5709 5705 5701 5694 5689 5685 5687 5686 5680 5676 5674 5672 5671 5672 5668 5665 5666 5664 5662 5661 5662 5660 5661 5659 5658 5660 5658 5658 5656 5652 5648
5674 5667 5659 5644 5648 5662 5676 5692 5699 5701 5711 5713 5703 5691 5701 5701 5705 5710 5705 5700 5692 5686 5682 5676 5673 5678 5673 5665 5664 5663 5663 5666 5664 5661 5661 5656 5657 5658 5656 5657 5655 5654 5654 5655 5652 5647 5646 5647 5645
5667 5653 5639 5643 5652 5672 5683 5690 5691 5694 5700 5699 5700 5681 5682 5691 5698 5698 5693 5688 5685 5680 5674 5671 5661 5659 5665 5655 5654 5653 5656 5657 5660 5658 5657 5654 5656 5655 5656 5654 5652 5649 5651 5651 5647 5643 5640 5637 5635
5646 5645 5631 5642 5656 5665 5675 5679 5678 5680 5684 5688 5685 5683 5669 5679 5682 5680 5680 5677 5676 5670 5662 5648 5651 5651 5653 5651 5646 5647 5648 5650 5656 5656 5654 5655 5657 5656 5655 5651 5646 5644 5642 5641 5636 5635 5633 5631 5626
5644 5635 5636 5652 5657 5660 5671 5676 5669 5672 5680 5679 5687 5665 5659 5666 5670 5671 5666 5667 5654 5652 5650 5641 5638 5645 5643 5645 5640 5643 5646 5648 5653 5653 5655 5653 5654 5652 5649 5646 5644 5642 5637 5631 5630 5627 5627 5619 5618
5647 5642 5642 5651 5656 5656 5668 5669 5685 5689 5682 5690 5678 5658 5647 5655 5663 5663 5656 5650 5643 5636 5633 5633 5632 5637 5630 5629 5634 5638 5643 5643 5647 5651 5653 5652 5649 5648 5645 5642 5638 5635 5631 5626 5622 5623 5618 5615 5611
5660 5639 5642 5653 5661 5657 5670 5671 5681 5687 5679 5671 5672 5666 5656 5655 5657 5653 5651 5645 5643 5626 5626 5630 5628 5625 5623 5630 5634 5635 5637 5643 5648 5649 5647 5644 5643 5641 5639 5638 5634 5628 5623 5622 5619 5613 5610 5609 5606
5645 5636 5655 5669 5666 5661 5668 5664 5673 5673 5670 5654 5652 5648 5646 5647 5650 5645 5644 5641 5636 5633 5630 5633 5618 5625 5624 5627 5630 5633 5636 5641 5643 5641 5641 5642 5640 5637 5633 5630 5625 5620 5618 5615 5610 5607 5604 5602 5596
5650 5648 5669 5673 5672 5669 5665 5663 5667 5664 5657 5660 5651 5645 5639 5641 5641 5642 5639 5637 5633 5625 5624 5625 5620 5621 5623 5627 5631 5636 5637 5637 5639 5636 5638 5636 5631 5628 5624 5622 5617 5611 5609 5607 5603 5601 5598 5591 5589
5651 5672 5674 5674 5667 5662 5659 5668 5663 5663 5666 5669 5660 5651 5643 5643 5640 5640 5641 5636 5632 5631 5628 5623 5625 5623 5628 5629 5632 5635 5636 5636 5635 5632 5633 5629 5625 5621 5616 5620 5613 5607 5603 5599 5597 5593 5589 5589 5581
5654 5668 5674 5669 5667 5665 5674 5662 5657 5653 5666 5663 5650 5650 5641 5640 5633 5633 5635 5632 5628 5630 5621 5629 5630 5629 5631 5631 5632 5635 5636 5631 5626 5629 5628 5627 5627 5619 5614 5613 5607 5601 5596 5594 5592 5587 5587 5581 5576
5670 5670 5667 5676 5668 5670 5666 5661 5660 5652 5659 5652 5647 5647 5640 5639 5638 5635 5632 5633 5635 5629 5629 5630 5631 5632 5632 5637 5634 5633 5631 5625 5626 5624 5625 5625 5623 5616 5611 5602 5600 5596 5592 5590 5586 5584 5576 5570 5566
5668 5660 5659 5660 5655 5661 5669 5659 5652 5655 5656 5653 5651 5650 5643 5641 5641 5640 5638 5636 5640 5640 5639 5637 5637 5635 5634 5636 5635 5628 5622 5624 5622 5622 5620 5618 5613 5609 5606 5597 5592 5590 5588 5585 5581 5575 5567 5559 5556
5659 5656 5629 5648 5658 5669 5666 5644 5661 5662 5655 5649 5654 5654 5649 5645 5645 5643 5643 5643 5644 5645 5643 5640 5637 5635 5632 5632 5627 5622 5623 5625 5619 5615 5614 5613 5607 5608 5599 5595 5590 5585 5582 5579 5571 5564 5555 5549 5541
5645 5633 5642 5645 5667 5668 5662 5650 5665 5666 5658 5651 5654 5652 5651 5651 5649 5648 5646 5647 5647 5646 5645 5639 5637 5631 5630 5626 5625 5621 5622 5622 5612 5609 5606 5607 5605 5600 5596 5591 5584 5581 5573 5567 5561 5551 5545 5537 5532
5633 5641 5648 5644 5655 5660 5661 5656 5669 5665 5663 5656 5652 5650 5655 5656 5657 5657 5653 5650 5648 5645 5645 5639 5636 5631 5628 5626 5623 5620 5618 5609 5606 5603 5603 5604 5598 5594 5589 5582 5574 5568 5561 5553 5548 5540 5535 5528 5523
5645 5649 5642 5647 5662 5659 5657 5659 5662 5666 5661 5654 5656 5654 5658 5659 5663 5660 5655 5648 5644 5645 5642 5640 5635 5630 5629 5623 5618 5611 5607 5605 5604 5603 5603 5593 5589 5586 5578 5569 5560 5555 5549 5544 5539 5531 5523 5516 5513
5646 5638 5637 5654 5667 5662 5655 5656 5660 5660 5666 5663 5660 5657 5657 5657 5657 5656 5653 5649 5647 5646 5640 5637 5634 5631 5629 5624 5617 5613 5609 5605 5601 5597 5589 5585 5583 5576 5565 5558 5553 5547 5541 5535 5528 5520 5512 5506 5501
5641 5638 5639 5645 5659 5661 5654 5648 5657 5665 5669 5662 5667 5671 5669 5666 5658 5656 5653 5652 5652 5645 5640 5638 5632 5628 5625 5619 5614 5610 5606 5600 5592 5587 5582 5577 5570 5562 5559 5553 5546 5540 5534 5524 5517 5510 5503 5495 5489
5628 5650 5652 5657 5645 5630 5655 5618 5649 5663 5663 5664 5660 5663 5667 5667 5663 5659 5654 5652 5652 5646 5643 5638 5632 5625 5620 5617 5614 5610 5604 5594 5588 5580 5574 5568 5564 5559 5554 5547 5539 5531 5521 5513 5505 5499 5492 5485 5478
5641 5660 5651 5656 5646 5641 5646 5629 5642 5659 5661 5664 5665 5669 5672 5671 5669 5661 5658 5659 5653 5646 5643 5636 5630 5625 5622 5617 5613 5604 5595 5590 5583 5575 5568 5563 5558 5552 5546 5537 5527 5518 5509 5502 5494 5488 5481 5475 5468
5656 5651 5643 5635 5632 5619 5641 5634 5637 5647 5672 5677 5679 5671 5669 5668 5666 5665 5657 5653 5647 5641 5638 5635 5630 5626 5618 5612 5608 5601 5596 5587 5579 5570 5562 5555 5548 5540 5533 5525 5517 5506 5500 5490 5482 5477 5472 5465 5456
5651 5634 5603 5597 5595 5605 5638 5632 5644 5665 5673 5678 5675 5672 5669 5667 5663 5657 5652 5649 5644 5642 5635 5631 5628 5621 5616 5611 5606 5600 5594 5587 5578 5567 5555 5545 5534 5525 5514 5506 5498 5491 5488 5478 5471 5464 5456 5451 5442
5636 5633 5601 5605 5587 5609 5633 5625 5645 5677 5686 5687 5685 5677 5670 5665 5665 5659 5656 5650 5648 5643 5635 5631 5626 5620 5615 5609 5602 5594 5585 5576 5565 5556 5544 5530 5519 5510 5505 5495 5486 5473 5466 5465 5460 5452 5443 5435 5428
5643 5624 5642 5607 5598 5584 5614 5641 5666 5674 5676 5673 5667 5673 5665 5663 5662 5660 5655 5651 5645 5639 5634 5629 5624 5617 5610 5600 5591 5582 5572 5563 5553 5539 5527 5517 5506 5499 5487 5481 5478 5465 5460 5455 5451 5439 5430 5423 5414
5645 5649 5623 5609 5600 5597 5613 5628 5631 5657 5666 5665 5663 5660 5661 5659 5655 5654 5650 5647 5642 5639 5631 5625 5623 5611 5601 5590 5584 5574 5562 5551 5540 5528 5517 5508 5499 5495 5484 5476 5463 5457 5452 5444 5435 5425 5417 5409 5399
5633 5630 5634 5623 5603 5593 5582 5606 5646 5652 5659 5657 5659 5663 5660 5657 5655 5652 5650 5646 5642 5637 5629 5622 5618 5606 5595 5584 5572 5563 5552 5541 5532 5522 5512 5504 5497 5486 5476 5465 5457 5447 5440 5431 5421 5412 5404 5393 5382
5640 5633 5628 5587 5610 5597 5579 5605 5654 5654 5656 5654 5655 5660 5660 5662 5658 5656 5653 5647 5640 5635 5627 5620 5613 5602 5589 5579 5567 5555 5547 5538 5527 5516 5506 5496 5486 5476 5467 5455 5445 5437 5427 5417 5407 5396 5386 5376 5364